EGLCEGCC

Guest
Details From EGLC - London City
To EGCC - Manchester
Flight Number -
Tags Decoded
Created
Modified
Stats Distance 140 nm / 258 km
Max Altitude 0 ft / 0 m
Waypoints 2
Social Downloads 0
Likes 0
Share VATSIM

Download

Looking for another format? Having issues loading an existing format? Contact us
Advertisement - Login to hide

Notes

Decoded

Route

EGLC EGCC

ID Type Via Altitude Latitude Longitude Leg Dist Tot Dist Heading (true) Name
O EGLC APT - 0 ft / 0 m 51.50558˚ 0.04414˚ - 0 nm - -
O EGCC APT - 0 ft / 0 m 53.33197˚ -2.31066˚ 139 nm 139 nm 323° / 321° -

Altitude Profile

Advertisement - Login to hide

EGLC

Details ICAO EGLC (LCY)
Name London City
Region United Kingdom
Timezone Europe/London (UTC+1.0)
Stats Elevation 19 ft / 6 m (AMSL)
Location 51.505231° 0.055175°
Runways 1
Magnetic Variation 0.308° W

METAR

EGLC 240120Z AUTO VRB03KT 9999 NCD 16/12 Q1025

Decode

TAF

Not found

Departure Runways

ID Width Length Bearing (true) Bearing (mag) Surface Threshold Offset Overrun Length
09 98 ft / 30 m 4,931 ft / 1,503 m 92.89° 93.20° Concrete 322 ft / 98 m 164 ft / 50 m
27 98 ft / 30 m 4,931 ft / 1,503 m 272.91° 273.22° Concrete 243 ft / 74 m 279 ft / 85 m

EGCC

Details ICAO EGCC (MAN)
Name Manchester Intl
Region United Kingdom
Timezone Europe/London (UTC+1.0)
Stats Elevation 257 ft / 78 m (AMSL)
Location 53.347141° -2.283954°
Runways 2
Magnetic Variation 1.379° W

METAR

EGCC 240120Z AUTO VRB02KT 9999 NCD 11/08 Q1027

Decode

TAF

TAF EGCC 232256Z 2400/2506 30006KT CAVOK PROB30 2403/2407 7000 PROB30 2503/2506 6000

Decode

Destination Runways

ID Width Length Bearing (true) Bearing (mag) Surface Threshold Offset Overrun Length
05L 151 ft / 46 m 9,981 ft / 3,042 m 50.99° 52.37° Asphalt 1,401 ft / 427 m 0 ft / 0 m
05R 151 ft / 46 m 9,952 ft / 3,033 m 50.97° 52.35° Asphalt 0 ft / 0 m 26 ft / 8 m
23L 151 ft / 46 m 9,952 ft / 3,033 m 231.00° 232.38° Asphalt 561 ft / 171 m 0 ft / 0 m
23R 151 ft / 46 m 9,981 ft / 3,042 m 231.02° 232.40° Asphalt 597 ft / 182 m 0 ft / 0 m

Approach Navaids

Runway Type Ident Frequency Range Bearing (true) Bearing (mag) Slope Elevation
05L Localiser IMM 109.50 MHz 18 nm / 33 km 51.03° 52.41° - 257 ft / 78 m (AMSL)
05L Glidescope IMM 109.50 MHz 10 nm / 19 km 51.01° 52.38° 3.00° 257 ft / 78 m (AMSL)
05L DME IMM 109.50 MHz 18 nm / 33 km - - - 294 ft / 90 m (AMSL)
05R Localiser IMC 111.55 MHz 18 nm / 33 km 51.01° 52.39° - 257 ft / 78 m (AMSL)
05R Glidescope IMC 111.55 MHz 10 nm / 19 km 50.98° 52.36° 3.00° 257 ft / 78 m (AMSL)
05R DME IMC 111.55 MHz 18 nm / 33 km - - - 212 ft / 65 m (AMSL)
23R Localiser INN 109.50 MHz 18 nm / 33 km 230.98° 232.36° - 257 ft / 78 m (AMSL)
23R Glidescope INN 109.50 MHz 10 nm / 19 km 231.00° 232.38° 3.00° 257 ft / 78 m (AMSL)
23R DME INN 109.50 MHz 18 nm / 33 km - - - 294 ft / 90 m (AMSL)

Popular Alternatives